Tracking 19634 objects as of 22-May-2019
HD Live streaming from Space Station
objects crossing your sky now

COSMOS 839

Track COSMOS 839 now!
10-day predictions
COSMOS 839 is classified as:


NORAD ID: 9011
Int'l Code: 1976-067A
Perigee: 984.2 km
Apogee: 2,104.4 km
Inclination: 65.9 °
Period: 116.8 minutes
Semi major axis: 7915 km
RCS: 0.8498 m2 (medium)
Launch date: July 8, 1976
Source: Commonwealth of Independent States (former USSR) (CIS)
Launch site: PLESETSK MISSILE AND SPACE COMPLEX (PKMTR)
aabbcc
Your satellite tracking list
Your tracking list is empty




NASA's NSSDC Master Catalog

Two Line Element Set (TLE):
1  9011U 76067A   19141.62320158 -.00000017  00000-0  13482-3 0  9990
2  9011  65.8528 217.1779 0707623 210.5463 145.2465 12.32833958941631
Source of the keplerian elements: AFSPC